Location: Ciserano
(45.5833°N, 9.6000°E)
Time: 04:34:12
(UTC+00:00)

USA 307 - Pass Details

Date: 29 November 2020
Orbit: 565 x 582 km, 54.0° (Epoch: 25 January)

Event Time Altitude Azimuth Distance (km) Brightness Sun altitude
Exits shadow 05:07:06 20° 327° (NNW) 1,369 4.4 -15.7°
Maximum altitude 05:09:07 29° 10° (N) 1,088 4.2 -15.4°
Drops below altitude 10° 05:12:55 10° 71° (ENE) 1,902 6.4 -14.7°
Sets 05:15:25 0° 83° (E) 2,801 7.7 -14.3°
